Time,TemperatureF,DewpointF,PressureIn,WindDirection,WindDirectionDegrees,WindSpeedMPH,WindSpeedGustMPH,Humidity,HourlyPrecipIn,Conditions,Clouds,dailyrainin,SoftwareType,DateUTC
2013-02-28 00:00:00,30.0,28.7,29.80,WSW,247,5.0,13.0,95,0.00,,,0.00,Weather View 32 v70,2013-02-28 05:00:00,
2013-02-28 00:15:00,30.0,28.7,29.79,WSW,247,6.0,12.0,95,0.00,,,0.00,Weather View 32 v70,2013-02-28 05:15:00,
2013-02-28 00:30:00,30.0,28.7,29.79,SW,225,1.0,12.0,95,0.00,,,0.00,Weather View 32 v70,2013-02-28 05:30:00,
2013-02-28 00:45:00,30.0,28.7,29.79,SW,225,6.0,11.0,95,0.00,,,0.00,Weather View 32 v70,2013-02-28 05:45:00,
2013-02-28 01:00:00,29.0,27.5,29.79,ESE,112,4.0,16.0,94,0.00,,,0.00,Weather View 32 v70,2013-02-28 06:00:00,
2013-02-28 01:15:00,29.0,27.5,29.79,SSW,202,3.0,17.0,94,0.00,,,0.00,Weather View 32 v70,2013-02-28 06:15:00,
2013-02-28 01:30:00,29.0,27.5,29.79,WSW,247,3.0,17.0,94,0.00,,,0.00,Weather View 32 v70,2013-02-28 06:30:00,
2013-02-28 01:45:00,29.0,27.5,29.79,NE,45,8.0,17.0,94,0.00,,,0.00,Weather View 32 v70,2013-02-28 06:45:00,
2013-02-28 02:00:00,29.0,27.5,29.79,WSW,247,9.0,17.0,94,0.00,,,0.00,Weather View 32 v70,2013-02-28 07:00:00,
2013-02-28 02:15:00,29.0,27.5,29.78,SW,225,6.0,15.0,94,0.00,,,0.00,Weather View 32 v70,2013-02-28 07:15:00,
2013-02-28 02:30:00,29.0,27.5,29.78,West,270,0.0,15.0,94,0.00,,,0.00,Weather View 32 v70,2013-02-28 07:30:00,
2013-02-28 02:45:00,29.0,27.5,29.78,West,270,3.0,15.0,94,0.00,,,0.00,Weather View 32 v70,2013-02-28 07:45:00,
2013-02-28 03:00:00,29.0,27.5,29.78,WSW,247,0.0,12.0,94,0.00,,,0.00,Weather View 32 v70,2013-02-28 08:00:00,
2013-02-28 03:15:00,29.0,27.5,29.77,SSW,202,3.0,10.0,94,0.00,,,0.00,Weather View 32 v70,2013-02-28 08:15:00,
2013-02-28 03:30:00,29.0,27.5,29.77,WSW,247,1.0,10.0,94,0.00,,,0.00,Weather View 32 v70,2013-02-28 08:30:00,
2013-02-28 03:45:00,29.0,27.5,29.77,SW,225,4.0,10.0,94,0.00,,,0.00,Weather View 32 v70,2013-02-28 08:45:00,
2013-02-28 04:00:00,29.0,27.5,29.77,WSW,247,1.0,10.0,94,0.00,,,0.00,Weather View 32 v70,2013-02-28 09:00:00,
2013-02-28 04:15:00,28.0,26.5,29.76,SW,225,2.0,9.0,94,0.00,,,0.00,Weather View 32 v70,2013-02-28 09:15:00,
2013-02-28 04:30:00,28.0,26.5,29.77,SW,225,6.0,9.0,94,0.00,,,0.00,Weather View 32 v70,2013-02-28 09:30:00,
2013-02-28 04:45:00,29.0,27.5,29.76,SW,225,3.0,9.0,94,0.00,,,0.00,Weather View 32 v70,2013-02-28 09:45:00,
2013-02-28 05:00:00,29.0,27.5,29.76,WSW,247,2.0,9.0,94,0.00,,,0.00,Weather View 32 v70,2013-02-28 10:00:00,
2013-02-28 05:15:00,29.0,27.5,29.76,SW,225,4.0,9.0,94,0.00,,,0.00,Weather View 32 v70,2013-02-28 10:15:00,
2013-02-28 05:30:00,29.0,27.5,29.76,SW,225,4.0,10.0,94,0.00,,,0.00,Weather View 32 v70,2013-02-28 10:30:00,
2013-02-28 05:45:00,28.0,26.5,29.78,WSW,247,11.0,17.0,94,0.00,,,0.00,Weather View 32 v70,2013-02-28 10:45:00,
2013-02-28 06:00:00,28.0,26.5,29.78,WSW,247,11.0,18.0,94,0.00,,,0.00,Weather View 32 v70,2013-02-28 11:00:00,
2013-02-28 06:15:00,28.0,26.5,29.78,SW,225,6.0,18.0,94,0.00,,,0.00,Weather View 32 v70,2013-02-28 11:15:00,
2013-02-28 06:30:00,27.0,25.5,29.78,West,270,2.0,18.0,94,0.00,,,0.00,Weather View 32 v70,2013-02-28 11:30:00,
2013-02-28 06:45:00,27.0,25.5,29.79,SW,225,7.0,18.0,94,0.00,,,0.00,Weather View 32 v70,2013-02-28 11:45:00,
2013-02-28 09:15:00,28.0,26.5,29.81,SW,225,4.0,11.0,94,0.00,,,0.00,Weather View 32 v70,2013-02-28 14:15:00,
2013-02-28 09:30:00,28.0,26.5,29.81,SSW,202,4.0,12.0,94,0.00,,,0.00,Weather View 32 v70,2013-02-28 14:30:00,
2013-02-28 09:45:00,28.0,26.5,29.82,SSW,202,2.0,12.0,94,0.00,,,0.00,Weather View 32 v70,2013-02-28 14:45:00,
2013-02-28 10:00:00,29.0,27.5,29.82,SW,225,6.0,12.0,94,0.00,,,0.00,Weather View 32 v70,2013-02-28 15:00:00,
2013-02-28 10:15:00,29.0,27.5,29.82,SSW,202,1.0,12.0,94,0.00,,,0.00,Weather View 32 v70,2013-02-28 15:15:00,
2013-02-28 10:30:00,28.0,26.5,29.82,North,360,6.0,17.0,94,0.00,,,0.00,Weather View 32 v70,2013-02-28 15:30:00,
2013-02-28 10:45:00,28.0,26.5,29.82,SW,225,8.0,17.0,94,0.00,,,0.00,Weather View 32 v70,2013-02-28 15:45:00,
2013-02-28 11:00:00,28.0,26.5,29.82,West,270,12.0,17.0,94,0.00,,,0.00,Weather View 32 v70,2013-02-28 16:00:00,
2013-02-28 11:15:00,28.0,26.5,29.82,WSW,247,4.0,17.0,94,0.00,,,0.00,Weather View 32 v70,2013-02-28 16:15:00,
2013-02-28 11:30:00,28.0,26.5,29.82,SSW,202,7.0,15.0,94,0.00,,,0.00,Weather View 32 v70,2013-02-28 16:30:00,
2013-02-28 11:45:00,28.0,26.5,29.82,WSW,247,6.0,14.0,94,0.00,,,0.00,Weather View 32 v70,2013-02-28 16:45:00,
2013-02-28 12:00:00,29.0,27.5,29.83,WSW,247,6.0,14.0,94,0.00,,,0.00,Weather View 32 v70,2013-02-28 17:00:00,
2013-02-28 12:15:00,29.0,27.5,29.83,SW,225,6.0,17.0,94,0.00,,,0.00,Weather View 32 v70,2013-02-28 17:15:00,
2013-02-28 15:15:00,29.0,27.5,29.85,SW,225,3.0,14.0,94,0.00,,,0.00,Weather View 32 v70,2013-02-28 20:15:00,
2013-02-28 15:30:00,29.0,27.5,29.85,SSW,202,1.0,13.0,94,0.00,,,0.00,Weather View 32 v70,2013-02-28 20:30:00,
2013-02-28 15:45:00,29.0,27.5,29.85,SW,225,6.0,13.0,94,0.00,,,0.00,Weather View 32 v70,2013-02-28 20:45:00,
2013-02-28 16:00:00,29.0,27.5,29.85,SSW,202,3.0,13.0,94,0.00,,,0.00,Weather View 32 v70,2013-02-28 21:00:00,
2013-02-28 16:15:00,29.0,27.5,29.85,SW,225,2.0,13.0,94,0.00,,,0.00,Weather View 32 v70,2013-02-28 21:15:00,
2013-02-28 16:30:00,29.0,27.5,29.86,SW,225,5.0,15.0,94,0.00,,,0.00,Weather View 32 v70,2013-02-28 21:30:00,
2013-02-28 16:45:00,29.0,27.5,29.86,West,270,3.0,15.0,94,0.00,,,0.00,Weather View 32 v70,2013-02-28 21:45:00,
2013-02-28 17:00:00,28.0,26.5,29.86,WNW,292,8.0,15.0,94,0.00,,,0.00,Weather View 32 v70,2013-02-28 22:00:00,
2013-02-28 17:15:00,28.0,26.5,29.87,WSW,247,2.0,15.0,94,0.00,,,0.00,Weather View 32 v70,2013-02-28 22:15:00,
2013-02-28 17:20:00,28.0,26.5,29.87,WSW,247,2.0,15.0,94,0.00,,,0.00,Weather View 32 v70,2013-02-28 22:20:00,
2013-02-28 17:30:00,28.0,26.5,29.88,SSW,202,2.0,15.0,94,0.00,,,0.00,Weather View 32 v70,2013-02-28 22:30:00,
2013-02-28 17:45:00,29.0,27.5,29.88,SW,225,6.0,14.0,94,0.00,,,0.00,Weather View 32 v70,2013-02-28 22:45:00,
2013-02-28 18:00:00,29.0,27.5,29.89,WSW,247,3.0,14.0,94,0.00,,,0.00,Weather View 32 v70,2013-02-28 23:00:00,
2013-02-28 18:15:00,28.0,26.5,29.90,SW,225,7.0,14.0,94,0.00,,,0.00,Weather View 32 v70,2013-02-28 23:15:00,
2013-02-28 18:20:00,28.0,26.5,29.90,SW,225,7.0,14.0,94,0.00,,,0.00,Weather View 32 v70,2013-02-28 23:20:00,
2013-02-28 18:30:00,29.0,27.5,29.90,NW,315,6.0,12.0,94,0.00,,,0.00,Weather View 32 v70,2013-02-28 23:30:00,
2013-02-28 18:45:00,29.0,27.5,29.91,SW,225,7.0,14.0,94,0.00,,,0.00,Weather View 32 v70,2013-02-28 23:45:00,
2013-02-28 19:00:00,29.0,27.5,29.92,SSW,202,7.0,16.0,94,0.00,,,0.00,Weather View 32 v70,2013-03-01 00:00:00,
2013-02-28 19:15:00,29.0,27.5,29.92,WSW,247,6.0,16.0,94,0.00,,,0.00,Weather View 32 v70,2013-03-01 00:15:00,
2013-02-28 19:21:00,29.0,27.5,29.92,WSW,247,6.0,16.0,94,0.00,,,0.00,Weather View 32 v70,2013-03-01 00:21:00,
2013-02-28 19:30:00,29.0,27.5,29.92,SW,225,7.0,16.0,94,0.00,,,0.00,Weather View 32 v70,2013-03-01 00:30:00,
2013-02-28 19:45:00,29.0,27.5,29.93,SW,225,6.0,16.0,94,0.00,,,0.00,Weather View 32 v70,2013-03-01 00:45:00,
2013-02-28 20:00:00,29.0,27.5,29.93,SSW,202,6.0,16.0,94,0.00,,,0.00,Weather View 32 v70,2013-03-01 01:00:00,
2013-02-28 20:15:00,29.0,27.5,29.93,SSE,157,5.0,16.0,94,0.00,,,0.00,Weather View 32 v70,2013-03-01 01:15:00,
2013-02-28 20:21:00,29.0,27.5,29.93,SSE,157,5.0,16.0,94,0.00,,,0.00,Weather View 32 v70,2013-03-01 01:21:00,
2013-02-28 20:30:00,29.0,27.5,29.93,SW,225,10.0,15.0,94,0.00,,,0.00,Weather View 32 v70,2013-03-01 01:30:00,
2013-02-28 20:45:00,29.0,27.5,29.92,WNW,292,8.0,15.0,94,0.00,,,0.00,Weather View 32 v70,2013-03-01 01:45:00,